| time (UTC) | temp C | wind direction | speed KPH | gust KPH | rain 1hr cm | rain 24hr cm | rain mn cm | humidity % | barometer mb |
| 20260505125007 | 21 | 178 | 6.4 | 12.9 | 0.00 | 0.00 | 0.00 | 88 | 1005.9 |
| 20260505124008 | 21 | 189 | 4.8 | 12.9 | 0.00 | 0.00 | 0.00 | 87 | 1005.7 |
| 20260505123009 | 21 | 182 | 6.4 | 16.1 | 0.00 | 0.00 | 0.00 | 87 | 1005.6 |
| 20260505121009 | 21 | 177 | 4.8 | 12.9 | 0.00 | 0.00 | 0.00 | 87 | 1005.6 |
| 20260505120009 | 21 | 186 | 4.8 | 11.3 | 0.00 | 0.00 | 0.00 | 87 | 1005.3 |
| 20260505115009 | 21 | 191 | 4.8 | 14.5 | 0.00 | 0.00 | 0.00 | 87 | 1005.2 |
| 20260505113008 | 21 | 179 | 4.8 | 14.5 | 0.00 | 0.00 | 0.00 | 88 | 1005.2 |
| 20260505112008 | 21 | 172 | 3.2 | 14.5 | 0.00 | 0.00 | 0.00 | 88 | 1005.2 |
| 20260505101009 | 20 | 171 | 6.4 | 24.1 | 0.00 | 0.00 | 0.00 | 87 | 1005.1 |
| 20260505100008 | 20 | 175 | 4.8 | 17.7 | 0.00 | 0.00 | 0.00 | 87 | 1005.2 |
| 20260505095008 | 20 | 172 | 4.8 | 17.7 | 0.00 | 0.00 | 0.00 | 87 | 1005.0 |
| 20260505094007 | 20 | 178 | 4.8 | 17.7 | 0.00 | 0.00 | 0.00 | 87 | 1005.0 |
| 20260505093009 | 20 | 170 | 4.8 | 14.5 | 0.00 | 0.00 | 0.00 | 87 | 1005.1 |
| 20260505092007 | 20 | 171 | 4.8 | 11.3 | 0.00 | 0.00 | 0.00 | 87 | 1005.2 |
| 20260505091007 | 20 | 173 | 4.8 | 12.9 | 0.00 | 0.00 | 0.00 | 87 | 1005.4 |
| 20260505090009 | 20 | 164 | 4.8 | 12.9 | 0.00 | 0.00 | 0.00 | 87 | 1005.3 |
| 20260505085008 | 20 | 162 | 3.2 | 11.3 | 0.00 | 0.00 | 0.00 | 87 | 1005.5 |
| 20260505084008 | 20 | 161 | 4.8 | 8.0 | 0.00 | 0.00 | 0.00 | 87 | 1005.6 |
| 20260505083008 | 20 | 168 | 4.8 | 9.7 | 0.00 | 0.00 | 0.00 | 87 | 1005.7 |
| 20260505082008 | 20 | 173 | 3.2 | 9.7 | 0.00 | 0.00 | 0.00 | 87 | 1005.8 |
| 20260505081008 | 20 | 164 | 3.2 | 12.9 | 0.00 | 0.00 | 0.00 | 87 | 1005.9 |
| 20260505075007 | 20 | 169 | 4.8 | 14.5 | 0.00 | 0.00 | 0.00 | 86 | 1006.2 |
| 20260505074007 | 20 | 186 | 3.2 | 9.7 | 0.00 | 0.00 | 0.00 | 86 | 1006.2 |
| 20260505072007 | 20 | 153 | 3.2 | 11.3 | 0.00 | 0.00 | 0.00 | 86 | 1006.4 |
| 20260505070008 | 20 | 155 | 3.2 | 11.3 | 0.00 | 0.00 | 0.00 | 85 | 1006.6 |
| 20260505065009 | 20 | 148 | 3.2 | 12.9 | 0.00 | 0.00 | 0.00 | 85 | 1006.5 |
| 20260505064008 | 20 | 150 | 3.2 | 9.7 | 0.00 | 0.00 | 0.00 | 84 | 1006.6 |
| 20260505063008 | 20 | 175 | 1.6 | 6.4 | 0.00 | 0.00 | 0.00 | 84 | 1006.9 |
| 20260505062008 | 20 | 147 | 3.2 | 6.4 | 0.00 | 0.00 | 0.00 | 84 | 1007.0 |
| 20260505061008 | 20 | 184 | 1.6 | 8.0 | 0.00 | 0.00 | 0.00 | 83 | 1007.0 |
| 20260505055007 | 20 | 149 | 3.2 | 11.3 | 0.00 | 0.00 | 0.00 | 82 | 1006.9 |
| 20260505054008 | 20 | 164 | 3.2 | 8.0 | 0.00 | 0.00 | 0.00 | 82 | 1007.0 |
| 20260505053007 | 20 | 173 | 3.2 | 6.4 | 0.00 | 0.00 | 0.00 | 81 | 1007.2 |
| 20260505052007 | 21 | 186 | 3.2 | 8.0 | 0.00 | 0.00 | 0.00 | 81 | 1007.0 |
| 20260505051008 | 21 | 165 | 3.2 | 8.0 | 0.00 | 0.00 | 0.00 | 81 | 1007.2 |
| 20260505041008 | 21 | 158 | 3.2 | 6.4 | 0.00 | 0.00 | 0.00 | 77 | 1007.3 |
| 20260505040007 | 21 | 161 | 3.2 | 11.3 | 0.00 | 0.00 | 0.00 | 76 | 1007.4 |
| 20260505035008 | 21 | 173 | 3.2 | 4.8 | 0.00 | 0.00 | 0.00 | 75 | 1007.4 |
| 20260505034007 | 22 | 168 | 3.2 | 8.0 | 0.00 | 0.00 | 0.00 | 75 | 1007.4 |
| 20260505033007 | 22 | 166 | 3.2 | 11.3 | 0.00 | 0.00 | 0.00 | 74 | 1007.3 |
| 20260505032007 | 22 | 153 | 4.8 | 14.5 | 0.00 | 0.00 | 0.00 | 73 | 1007.1 |
| 20260505031007 | 22 | 150 | 3.2 | 9.7 | 0.00 | 0.00 | 0.00 | 72 | 1007.0 |
| 20260505025008 | 22 | 177 | 3.2 | 6.4 | 0.00 | 0.00 | 0.00 | 71 | 1007.0 |
| 20260505024007 | 22 | 148 | 3.2 | 9.7 | 0.00 | 0.00 | 0.00 | 70 | 1006.8 |
| 20260505023008 | 22 | 162 | 1.6 | 4.8 | 0.00 | 0.00 | 0.00 | 70 | 1007.0 |
| 20260505022007 | 22 | 154 | 1.6 | 4.8 | 0.00 | 0.00 | 0.00 | 69 | 1007.0 |
| 20260505021009 | 22 | 145 | 3.2 | 4.8 | 0.00 | 0.00 | 0.00 | 68 | 1007.1 |
| 20260505020007 | 22 | 135 | 1.6 | 4.8 | 0.00 | 0.00 | 0.00 | 68 | 1007.1 |
| 20260505015007 | 23 | 138 | 1.6 | 6.4 | 0.00 | 0.00 | 0.00 | 67 | 1007.0 |
| 20260505013008 | 23 | 134 | 1.6 | 6.4 | 0.00 | 0.00 | 0.00 | 66 | 1006.8 |
| 20260505012006 | 23 | 183 | 1.6 | 8.0 | 0.00 | 0.00 | 0.00 | 64 | 1006.8 |
| 20260505011008 | 23 | 179 | 3.2 | 8.0 | 0.00 | 0.00 | 0.00 | 64 | 1006.9 |
| 20260505010009 | 23 | 174 | 3.2 | 8.0 | 0.00 | 0.00 | 0.00 | 63 | 1006.8 |
| 20260505005007 | 24 | 165 | 3.2 | 9.7 | 0.00 | 0.00 | 0.00 | 62 | 1006.7 |
| 20260505004008 | 24 | 170 | 3.2 | 8.0 | 0.00 | 0.00 | 0.00 | 61 | 1006.6 |
| 20260505003007 | 24 | 159 | 3.2 | 9.7 | 0.00 | 0.00 | 0.00 | 61 | 1006.7 |
| 20260505002007 | 24 | 139 | 3.2 | 4.8 | 0.00 | 0.00 | 0.00 | 60 | 1006.8 |
| 20260505000007 | 25 | 189 | 4.8 | 11.3 | 0.00 | 0.00 | 0.00 | 59 | 1007.0 |
| 20260504234007 | 25 | 163 | 4.8 | 11.3 | 0.00 | 0.00 | 0.00 | 58 | 1007.4 |
| 20260504232007 | 25 | 179 | 4.8 | 9.7 | 0.00 | 0.00 | 0.00 | 57 | 1007.5 |
| 20260504231007 | 25 | 175 | 3.2 | 8.0 | 0.00 | 0.00 | 0.00 | 57 | 1007.4 |
| 20260504230007 | 25 | 176 | 4.8 | 9.7 | 0.00 | 0.00 | 0.00 | 57 | 1007.4 |
| 20260504224007 | 25 | 176 | 4.8 | 11.3 | 0.00 | 0.00 | 0.00 | 57 | 1007.9 |
| 20260504222008 | 26 | 160 | 4.8 | 12.9 | 0.00 | 0.00 | 0.00 | 55 | 1008.1 |
| 20260504221007 | 26 | 163 | 3.2 | 9.7 | 0.00 | 0.00 | 0.00 | 54 | 1008.0 |
| 20260504220009 | 26 | 184 | 4.8 | 9.7 | 0.00 | 0.00 | 0.00 | 53 | 1008.0 |
| 20260504213008 | 26 | 167 | 4.8 | 12.9 | 0.00 | 0.00 | 0.00 | 51 | 1008.8 |
| 20260504212007 | 26 | 166 | 3.2 | 12.9 | 0.00 | 0.00 | 0.00 | 50 | 1009.0 |
| 20260504211007 | 26 | 176 | 4.8 | 8.0 | 0.00 | 0.00 | 0.00 | 51 | 1009.0 |
| 20260504210007 | 26 | 160 | 3.2 | 12.9 | 0.00 | 0.00 | 0.00 | 51 | 1009.4 |
| 20260504205007 | 26 | 176 | 4.8 | 11.3 | 0.00 | 0.00 | 0.00 | 50 | 1009.5 |
| 20260504204007 | 26 | 177 | 4.8 | 9.7 | 0.00 | 0.00 | 0.00 | 52 | 1009.8 |
| 20260504202008 | 25 | 142 | 4.8 | 14.5 | 0.00 | 0.00 | 0.00 | 51 | 1010.0 |
| 20260504201007 | 25 | 146 | 3.2 | 9.7 | 0.00 | 0.00 | 0.00 | 51 | 1010.1 |
| 20260504200007 | 26 | 188 | 4.8 | 9.7 | 0.00 | 0.00 | 0.00 | 53 | 1010.3 |
| 20260504195008 | 25 | 172 | 4.8 | 14.5 | 0.00 | 0.00 | 0.00 | 52 | 1010.6 |
| 20260504194007 | 25 | 161 | 4.8 | 11.3 | 0.00 | 0.00 | 0.00 | 52 | 1010.7 |
| 20260504193007 | 25 | 168 | 4.8 | 9.7 | 0.00 | 0.00 | 0.00 | 54 | 1010.9 |
| 20260504192008 | 25 | 164 | 4.8 | 11.3 | 0.00 | 0.00 | 0.00 | 52 | 1011.0 |
| 20260504190007 | 25 | 167 | 4.8 | 12.9 | 0.00 | 0.00 | 0.00 | 52 | 1011.5 |
| 20260504185007 | 24 | 182 | 4.8 | 11.3 | 0.00 | 0.00 | 0.00 | 52 | 1011.3 |
| 20260504184007 | 24 | 161 | 4.8 | 19.3 | 0.00 | 0.00 | 0.00 | 52 | 1011.5 |
| 20260504183007 | 24 | 164 | 6.4 | 11.3 | 0.00 | 0.00 | 0.00 | 52 | 1011.8 |
| 20260504182007 | 23 | 183 | 6.4 | 17.7 | 0.00 | 0.00 | 0.00 | 52 | 1012.1 |
| 20260504181006 | 24 | 177 | 4.8 | 17.7 | 0.00 | 0.00 | 0.00 | 51 | 1012.2 |
| 20260504180006 | 24 | 179 | 4.8 | 11.3 | 0.00 | 0.00 | 0.00 | 51 | 1012.2 |
| 20260504175007 | 23 | 179 | 6.4 | 16.1 | 0.00 | 0.00 | 0.00 | 52 | 1012.4 |
| 20260504174007 | 23 | 176 | 6.4 | 14.5 | 0.00 | 0.00 | 0.00 | 53 | 1012.5 |
| 20260504173006 | 23 | 174 | 4.8 | 14.5 | 0.00 | 0.00 | 0.00 | 53 | 1012.8 |
| 20260504172007 | 23 | 176 | 4.8 | 12.9 | 0.00 | 0.00 | 0.00 | 54 | 1013.0 |
| 20260504151006 | 20 | 195 | 4.8 | 11.3 | 0.00 | 0.00 | 0.00 | 66 | 1014.2 |